Rockford, IL

11:01 PM CDT on August 29, 2016 (GMT -0500)
Greater Rockford

Weather History for KRFD - July, 2013

Change the Weather History Date:

Friday, July 5, 2013

  Actual Average Record
Temperature  
Mean Temperature 73 °F 74 °F  
Max Temperature 84 °F 85 °F 102 °F (2012)
Min Temperature 61 °F 63 °F 43 °F (1967)
Degree Days  
Heating Degree Days 0 0  
Month to date heating degree days 0 0  
Since 1 June heating degree days 34 31  
Since 1 July heating degree days 0 0  
Cooling Degree Days 8 9  
Month to date cooling degree days 19 45  
Year to date cooling degree days 280 275  
Since 1 June cooling degree days 188 220  
Growing Degree Days 22 (Base 50)    
Moisture  
Dew Point 62 °F    
Average Humidity 69    
Maximum Humidity 90    
Minimum Humidity 48    
Precipitation  
Precipitation 0.00 in 0.13 in 1.80 in (1943)
Month to date precipitation T 0.62  
Year to date precipitation 27.16 17.74  
Snow  
Snow 0.00 in 0.00 in 0.00 in ()
Month to date snowfall 0.0 0.0  
Since 1 June snowfall 0.0 0.0  
Since 1 July snowfall 0.0 0.0  
Snow Depth 0.00 in    
Sea Level Pressure  
Sea Level Pressure 30.06 in    
Wind  
Wind Speed 6 mph (South)    
Max Wind Speed 17 mph    
Max Gust Speed -    
Visibility 9 miles    
Events      
T = Trace of Precipitation, MM = Missing Value Source: NWS Daily Summary

Daily Weather History Graph

Daily Weather History Graph

Search for Another Location

Airport or City:

Trip Planner

Search our weather history database for the weather conditions in past years. The results will help you decide how hot, cold, wet, or windy it might be!

Date:

Astronomy

Jul. 05, 2013 Rise Set
Actual Time 5:26 AM CDT 8:35 PM CDT
Civil Twilight 4:52 AM CDT 9:09 PM CDT
Nautical Twilight 4:08 AM CDT 9:53 PM CDT
Astronomical Twilight 3:15 AM CDT 10:45 PM CDT
Moon 3:26 AM CDT (7/5) 6:29 PM CDT (7/5)
Length of Visible Light 16h 17m
Length of Day
15h 09m
Waning Crescent, 6% of the Moon is Illuminated
Jul 5
Waning Crescent
Jul 8
New
Jul 15
First Quarter
Jul 22
Full
Jul 29
Last Quarter

Hourly Weather History & Observations

Time (CDT) Temp. Heat Index Dew Point Humidity Pressure Visibility Wind Dir Wind Speed Gust Speed Precip Events Conditions
12:54 AM 66.0 °F - 61.0 °F 84% 30.06 in 10.0 mi South 5.8 mph - N/A   Partly Cloudy
1:54 AM 64.9 °F - 60.1 °F 84% 30.06 in 8.0 mi SSE 3.5 mph - N/A   Clear
2:54 AM 64.0 °F - 59.0 °F 84% 30.07 in 10.0 mi SSE 4.6 mph - N/A   Clear
3:54 AM 63.0 °F - 59.0 °F 87% 30.07 in 10.0 mi Calm Calm - N/A   Clear
4:54 AM 61.0 °F - 57.9 °F 90% 30.06 in 8.0 mi SE 3.5 mph - N/A   Clear
5:54 AM 61.0 °F - 57.9 °F 90% 30.08 in 8.0 mi SE 3.5 mph - N/A   Clear
6:54 AM 64.9 °F - 61.0 °F 87% 30.08 in 8.0 mi Calm Calm - N/A   Clear
7:54 AM 68.0 °F - 62.1 °F 81% 30.09 in 8.0 mi South 5.8 mph - N/A   Clear
8:54 AM 73.0 °F - 64.0 °F 73% 30.09 in 8.0 mi SSW 8.1 mph - N/A   Clear
9:54 AM 75.9 °F - 66.0 °F 71% 30.09 in 10.0 mi SSW 5.8 mph - N/A   Clear
10:54 AM 79.0 °F - 64.9 °F 62% 30.08 in 10.0 mi SW 5.8 mph - N/A   Clear
11:54 AM 81.0 °F 82.5 °F 64.0 °F 56% 30.08 in 10.0 mi SSW 4.6 mph - N/A   Partly Cloudy
12:54 PM 82.0 °F 83.8 °F 64.9 °F 56% 30.07 in 10.0 mi SSW 10.4 mph - N/A   Scattered Clouds
1:54 PM 82.0 °F 83.0 °F 62.1 °F 51% 30.06 in 10.0 mi South 10.4 mph - N/A   Scattered Clouds
2:54 PM 84.0 °F 84.9 °F 63.0 °F 49% 30.04 in 10.0 mi South 10.4 mph - N/A   Scattered Clouds
3:54 PM 82.9 °F 84.0 °F 63.0 °F 51% 30.03 in 10.0 mi South 9.2 mph - N/A   Scattered Clouds
4:54 PM 82.9 °F 83.7 °F 62.1 °F 49% 30.03 in 10.0 mi SSE 11.5 mph - N/A   Partly Cloudy
5:54 PM 82.0 °F 83.0 °F 62.1 °F 51% 30.02 in 10.0 mi SSE 10.4 mph - N/A   Partly Cloudy
6:54 PM 80.1 °F 81.2 °F 62.1 °F 54% 30.02 in 10.0 mi South 9.2 mph - N/A   Clear
7:54 PM 77.0 °F - 63.0 °F 62% 30.02 in 10.0 mi South 4.6 mph - N/A   Clear
8:54 PM 73.0 °F - 62.1 °F 68% 30.02 in 9.0 mi SSE 3.5 mph - N/A   Clear
9:54 PM 71.1 °F - 63.0 °F 75% 30.04 in 10.0 mi SSE 4.6 mph - N/A   Clear
10:54 PM 70.0 °F - 63.0 °F 78% 30.04 in 9.0 mi SSE 6.9 mph - N/A   Clear
11:54 PM 69.1 °F - 63.0 °F 81% 30.04 in 9.0 mi SSE 8.1 mph - N/A   Clear